AirNav   TITAN Aviation Fuels
 
 495 users online  

17TE Comfort Airpark
Comfort, Texas, USA

GOING TO COMFORT?


FAA INFORMATION EFFECTIVE 11 AUGUST 2022

Location

FAA Identifier: 17TE
Lat/Long: 29-55-44.7790N 098-56-25.1230W
29-55.746317N 098-56.418717W
29.9291053,-98.9403119
(estimated)
Elevation: 1470 ft. / 448 m (estimated)
Variation: 07E (1985)
From city: 3 miles SW of COMFORT, TX
Time zone: UTC -5 (UTC -6 during Standard Time)
Zip code: 78010

Airport Operations

Airport use: Private use. Permission required prior to landing
Activation date: 03/1971
Control tower: no
ARTCC: HOUSTON CENTER
FSS: SAN ANGELO FLIGHT SERVICE STATION
Attendance: CONTINUOUS
OWNER RESIDES ON AIRPORT.
Wind indicator: yes
Segmented circle: no

Airport Communications

WX AWOS-3 at ERV (8 nm W): 118.125 (830-895-2204)
WX AWOS-3 at 5C1 (18 nm SE): 118.725 (830-755-9099)
WX AWOS-3 at T82 (19 nm N): 120.0 (830-990-2716)
  • MULTICOM 123.500.

Nearby radio navigation aids

VOR radial/distance  VOR name  Freq  Var
CSIr080/14.3CENTER POINT VORTAC117.5008E
STVr208/20.6STONEWALL VORTAC113.8008E
SATr296/30.2SAN ANTONIO VORTAC116.8008E

Airport Services

Airframe service: NONE
Powerplant service: NONE

Runway Information

Runway 14/32

Dimensions: 1950 x 30 ft. / 594 x 9 m
Surface: turf
RUNWAY 14  RUNWAY 32
Traffic pattern: leftleft
Obstructions: 4 ft. fence, marked, 50 ft. from runway15 ft. trees, 50 ft. from runway

Airport Ownership and Management from official FAA records

Ownership: Privately-owned
Owner: ANNA STEGMANN
175 AIR PARK RD.
COMFORT, TX 78013
Phone 714-316-9058
Manager: ANNA STEGMANN
175 AIR PARK RD.
COMFORT, TX 78013
Phone 714-316-9058

Airport Operational Statistics

Aircraft based on the field: 2
Single engine airplanes: 2
    

Additional Remarks

FOR CD CTC HOUSTON ARTCC AT 281-230-5622.
PRIVATE AIRSTRIP - OWNER APPROVAL REQUIRED FOR LANDING/USING RUNWAY. LAND AT OWN RISK.

Instrument Procedures

There are no published instrument procedures at 17TE.

Some nearby airports with instrument procedures:

KERV - Kerrville Municipal Airport/Louis Schreiner Field (8 nm W)
5C1 - Boerne Stage Field Airport (18 nm SE)
T82 - Gillespie County Airport (19 nm N)
KSAT - San Antonio International Airport (34 nm SE)
KCVB - Castroville Municipal Airport (36 nm S)
 
Loc | Ops | Rwys | IFR | FBO | Links
Com | Nav | Svcs | Stats | Notes
Area around 17TE (Comfort Airpark)
 
Road maps at: MapQuest Bing Google
 
Aerial photo
WARNING: Photo may not be current or correct
Aerial photo of 17TE (Comfort Airpark)
BARRY McCOLLOM - Realtor
Taken in November 2019

Do you have a better or more recent aerial photo of Comfort Airpark that you would like to share? If so, please send us your photo.

 
Sectional chart

 
Airport distance calculator
Flying to Comfort Airpark? Find the distance to fly.

From to 17TE

Sunrise and sunset
Times for 14-Aug-2022
 Local
(UTC-5)
 Zulu
(UTC)
Morning civil twilight06:3811:38
Sunrise07:0412:04
Sunset20:1701:17
Evening civil twilight20:4201:42

Current date and time
Zulu (UTC)  14-Aug-2022 07:15:50
Local (UTC-5)  14-Aug-2022 02:15:50
 
METAR
KERV 
8nm NW 
140655Z AUTO 15003KT 10SM CLR 25/20 A3001 RMK AO2 T02490202
K5C1 
18nm SE 
140655Z AUTO 00000KT 10SM CLR 23/21 A3000 RMK AO1
KT82 
19nm N 
140655Z AUTO 13003KT 10SM CLR 26/21 A3002 RMK AO2 T02550205
TAF
KSAT 
34nm SE 
140527Z 1406/1512 12005KT P6SM SCT020 SCT250 TEMPO 1413/1416 BKN020 FM141600 12013KT P6SM SCT050 PROB30 1418/1424 4SM -TSRA BR BKN050CB FM150400 13008KT P6SM BKN025
KSKF 
39nm SE 
140200Z 1402/1508 14009KT 9999 SCT075 QNH2986INS BECMG 1408/1409 06006KT 9999 SCT015 BKN030 BKN150 QNH2993INS BECMG 1414/1415 06012KT 9999 BKN050 BKN150 QNH2996INS BECMG 1418/1419 07012G20KT 8000 -SHRA VCTS BKN030CB BKN100 QNH2993INS TEMPO 1419/1421 VRB15G25KT 8000 -TSRA BKN030CB BKN100 BECMG 1420/1421 09012KT 9999 NSW BKN030 BKN100 QNH2988INS BECMG 1506/1507 12006KT 9999 BKN015 OVC025 QNH2995INS TX35/1420Z TN24/1412Z
NOTAMs
Click for the latest NOTAMs
NOTAMs are issued by the DoD/FAA and will open in a separate window not controlled by AirNav.

 

 
 

Would you like to see your business listed on this page?

 If your business provides an interesting product or service to pilots, flight crews, aircraft, or users of the Comfort Airpark, you should consider listing it here.  To start the listing process, click on the button below
 
Add a business
 

Other Pages about Comfort Airpark

Update a link
 
Copyright © AirNav, LLC. All rights reserved. Privacy Policy  Contact